Vorticity
6 6 5 3 6 6 6 4 4 1 12 9 5 5 5 5 8 11 11 9 9 8 8 8 8 9 9 9 9 8 8 8 8 8 8 9 9 9 9 10 10 10 11
16 18 14 12 13 11 8 6 6 16 -6 -3 8 5 4 5 9 11 10 9 9 8 8 9 9 9 9 9 9 9 9 8 8 8 8 8 9 9 10 9 10 10 10
5 4 6 9 11 8 18 13 9 4 6 1 9 6 5 4 10 11 10 10 9 8 9 9 9 10 10 9 9 9 9 8 8 8 9 9 9 10 10 10 10 10 11
0 2 2 5 7 7 7 18 10 10 17 -0 1 4 5 6 10 11 10 9 9 8 9 8 9 12 10 9 9 9 9 8 8 8 9 9 10 11 10 11 10 11 10
3 1 11 4 7 7 8 13 15 11 11 15 2 5 6 7 8 10 9 8 8 8 9 6 10 11 10 8 9 9 9 8 8 8 8 8 10 10 11 10 10 11 10
15 2 0 7 7 6 10 13 16 21 0 19 4 7 4 8 7 9 8 8 8 8 8 8 10 10 9 8 9 9 9 9 8 8 8 8 9 9 9 9 10 9 11
3 8 -0 8 7 7 10 14 13 20 28 21 12 5 5 8 8 9 9 7 8 7 10 8 10 10 9 8 8 9 9 8 7 7 8 8 8 8 8 8 9 9 10
6 10 7 7 7 9 10 13 16 14 11 9 4 6 6 7 6 9 8 7 8 8 8 8 10 10 9 8 9 9 9 8 8 7 7 8 9 8 8 9 9 9 9
14 10 9 10 10 10 12 16 16 14 3 9 7 5 6 5 3 4 8 7 7 7 7 7 9 10 9 8 9 9 9 8 8 7 7 8 8 7 8 9 8 8 10
7 9 12 10 9 12 13 10 10 10 9 8 6 6 7 5 5 4 9 6 5 7 7 5 7 10 9 8 8 9 10 8 8 8 7 8 7 8 8 9 9 9 9
12 10 6 8 12 11 7 8 8 9 9 9 8 5 3 8 -2 2 2 15 14 10 7 6 7 8 8 9 8 8 9 9 8 8 7 8 8 8 8 9 9 10 10
13 12 13 12 11 10 8 6 5 8 3 10 9 10 18 -1 6 1 -9 8 27 7 6 7 7 8 8 9 8 7 9 9 8 8 8 9 9 7 8 10 11 12 12
3 10 5 4 9 3 16 14 6 4 21 19 46 41 13 2 4 10 7 8 21 12 5 7 7 7 9 9 8 8 9 8 9 7 7 8 7 7 9 11 12 12 12
6 6 1 3 2 24 0 0 17 20 23 34 23 27 -4 7 8 1 5 12 21 15 3 7 8 10 9 9 9 8 9 9 9 7 7 8 6 8 9 11 12 13 11
7 7 8 15 3 -3 7 14 10 6 24 7 10 13 6 7 12 5 4 6 19 17 13 6 11 10 9 9 8 9 9 10 8 7 8 7 7 8 10 12 13 12 11
15 17 12 6 13 13 -20 10 16 10 4 1 3 5 7 10 10 7 13 16 20 16 15 10 12 8 10 8 8 10 10 10 7 8 8 7 7 8 9 13 13 12 12
11 13 13 16 18 10 15 13 11 19 10 16 2 3 7 6 18 12 8 21 20 16 11 13 11 10 9 8 9 10 11 9 7 8 8 7 8 8 11 13 13 13 12
13 12 13 16 12 8 12 6 9 15 5 12 -2 6 15 12 11 11 21 24 12 10 10 10 12 10 8 9 10 11 11 7 9 9 8 7 8 8 11 13 13 13 13
12 16 17 19 22 18 23 17 18 13 18 10 11 10 6 4 14 12 19 13 8 8 9 14 11 8 8 10 11 11 7 8 10 9 8 7 8 9 13 14 13 14 13
17 13 12 16 17 17 10 17 17 2 36 40 14 16 9 23 12 24 14 8 8 9 12 11 8 8 10 11 12 8 8 10 10 10 8 8 9 11 14 14 14 14 15
16 15 14 14 17 17 13 11 14 18 14 10 9 5 5 11 21 20 8 8 10 12 11 9 9 10 11 12 10 9 9 11 11 9 8 9 11 13 15 15 15 15 14
12 15 19 19 17 19 17 14 11 8 8 13 4 14 8 19 29 8 9 10 10 11 8 9 11 12 13 10 9 9 10 10 10 10 10 12 13 15 15 15 15 13 13
11 10 17 15 21 23 19 15 13 17 6 6 13 13 26 23 9 12 9 11 9 9 10 12 12 12 10 10 9 10 11 10 9 11 12 13 15 14 14 14 12 12 13
14 10 15 20 20 21 22 20 17 15 19 19 22 31 17 12 10 10 10 9 10 11 12 12 10 11 10 9 10 10 9 11 12 13 13 13 14 15 14 12 12 13 14
14 15 19 22 18 15 16 18 21 19 15 20 17 16 10 9 12 10 10 11 11 11 10 10 11 10 9 9 9 10 13 13 13 14 13 14 14 14 13 12 13 15 16
8 13 18 20 20 19 20 20 19 21 22 18 11 9 13 10 9 11 11 11 11 10 10 10 9 9 9 10 11 12 12 14 15 13 13 13 14 14 12 13 16 16 15
Height
3151 3151 3152 3152 3152 3151 3150 3148 3146 3144 3143 3140 3137 3135 3132 3128 3125 3122 3118 3114 3112 3109 3107 3105 3103 3100 3096 3093 3089 3085 3082 3080 3079 3076 3072 3069 3066 3063 3061 3058 3056 3055 3053
3147 3147 3147 3147 3145 3144 3143 3141 3139 3138 3136 3134 3132 3129 3126 3124 3120 3116 3113 3109 3107 3104 3102 3099 3097 3094 3091 3087 3084 3080 3077 3074 3072 3070 3068 3064 3060 3057 3055 3053 3050 3048 3046
3143 3143 3143 3142 3140 3138 3136 3135 3133 3131 3130 3128 3125 3124 3121 3117 3114 3110 3107 3105 3101 3098 3096 3093 3091 3088 3085 3081 3078 3075 3072 3068 3065 3062 3060 3057 3055 3051 3049 3046 3043 3041 3038
3137 3138 3137 3136 3135 3133 3131 3128 3127 3125 3122 3121 3119 3119 3116 3112 3108 3105 3101 3099 3096 3093 3090 3087 3085 3082 3079 3075 3072 3069 3066 3062 3059 3056 3053 3050 3047 3044 3041 3038 3037 3033 3031
3130 3130 3129 3129 3128 3126 3124 3121 3120 3117 3115 3113 3112 3112 3111 3107 3104 3101 3097 3093 3091 3087 3084 3081 3078 3075 3073 3069 3066 3063 3060 3056 3052 3050 3046 3042 3039 3036 3033 3030 3027 3025 3024
3121 3122 3121 3122 3120 3118 3116 3114 3111 3109 3107 3106 3103 3105 3102 3100 3097 3094 3091 3087 3084 3081 3077 3074 3071 3068 3066 3063 3060 3056 3053 3049 3045 3042 3039 3035 3031 3027 3023 3019 3015 3013 3014
3113 3111 3113 3113 3112 3110 3107 3106 3104 3102 3099 3098 3096 3096 3094 3092 3090 3086 3085 3081 3077 3074 3071 3068 3064 3061 3059 3055 3053 3049 3045 3041 3037 3033 3030 3026 3023 3017 3013 3009 3005 3001 2999
3104 3105 3105 3105 3103 3100 3099 3098 3097 3094 3091 3089 3088 3087 3086 3084 3081 3078 3075 3075 3071 3067 3064 3061 3058 3055 3052 3049 3046 3042 3038 3033 3028 3024 3021 3018 3013 3010 3004 3000 2995 2991 2989
3097 3098 3098 3097 3095 3093 3092 3090 3088 3086 3085 3084 3083 3081 3078 3075 3071 3068 3067 3066 3063 3059 3056 3053 3050 3047 3044 3041 3039 3035 3031 3026 3022 3016 3012 3008 3003 2998 2992 2988 2983 2978 2975
3091 3092 3091 3089 3088 3086 3085 3083 3081 3080 3079 3076 3072 3070 3067 3065 3061 3059 3058 3057 3054 3051 3048 3044 3041 3039 3035 3032 3030 3027 3024 3019 3015 3011 3006 3001 2996 2991 2986 2980 2973 2967 2962
3082 3083 3083 3082 3081 3080 3078 3077 3075 3071 3069 3065 3061 3058 3054 3053 3051 3049 3048 3047 3045 3042 3040 3036 3032 3028 3025 3022 3019 3017 3014 3011 3006 3002 2999 2994 2990 2985 2979 2973 2966 2959 2953
3075 3075 3074 3074 3074 3073 3071 3068 3065 3061 3057 3053 3047 3046 3044 3042 3041 3040 3039 3037 3034 3033 3030 3027 3024 3020 3016 3013 3010 3006 3003 3000 2996 2993 2989 2985 2981 2977 2971 2965 2959 2952 2947
3068 3068 3068 3066 3063 3062 3060 3056 3052 3049 3043 3043 3038 3036 3036 3035 3033 3030 3029 3027 3025 3023 3020 3018 3015 3012 3008 3004 3001 2997 2993 2990 2985 2981 2977 2974 2968 2964 2960 2953 2949 2942 2937
3061 3061 3059 3057 3056 3052 3049 3046 3042 3039 3032 3033 3030 3026 3026 3025 3024 3022 3019 3017 3014 3012 3010 3008 3005 3002 2999 2995 2992 2987 2984 2980 2976 2971 2967 2963 2958 2954 2949 2941 2936 2931 2925
3052 3052 3049 3046 3042 3041 3037 3034 3032 3029 3025 3024 3021 3019 3017 3016 3014 3011 3009 3006 3003 3001 3000 2998 2995 2992 2989 2986 2983 2979 2975 2971 2966 2961 2957 2953 2948 2943 2937 2931 2924 2917 2911
3043 3040 3038 3035 3032 3029 3026 3023 3019 3019 3015 3012 3011 3009 3007 3005 3003 3000 2997 2994 2991 2990 2989 2988 2985 2982 2979 2976 2973 2970 2966 2961 2956 2952 2948 2943 2937 2931 2925 2920 2913 2906 2899
3032 3030 3025 3021 3019 3016 3013 3011 3008 3007 3004 2999 2999 2998 2997 2995 2992 2989 2985 2982 2980 2980 2979 2977 2975 2972 2969 2966 2963 2960 2957 2951 2947 2943 2938 2932 2926 2920 2914 2907 2900 2894 2887
3020 3016 3012 3008 3005 3003 3001 2998 2996 2995 2993 2991 2990 2988 2986 2983 2980 2978 2974 2972 2971 2971 2969 2967 2965 2961 2958 2955 2952 2950 2946 2943 2938 2933 2928 2922 2916 2908 2902 2895 2889 2882 2875
3010 3005 3001 2996 2993 2991 2989 2986 2985 2983 2981 2979 2977 2976 2974 2973 2970 2967 2965 2964 2962 2961 2959 2957 2954 2951 2948 2946 2943 2939 2936 2931 2927 2922 2917 2911 2904 2897 2891 2884 2877 2871 2864
2999 2995 2990 2987 2984 2981 2978 2976 2975 2973 2970 2967 2966 2965 2963 2961 2959 2957 2956 2955 2953 2951 2949 2947 2944 2941 2939 2936 2932 2929 2925 2921 2916 2911 2906 2900 2893 2886 2880 2873 2867 2860 2854
2989 2985 2980 2976 2973 2971 2969 2967 2965 2963 2961 2959 2958 2956 2953 2951 2950 2948 2947 2946 2944 2942 2940 2937 2935 2932 2929 2926 2922 2918 2914 2910 2905 2900 2894 2889 2883 2876 2870 2863 2856 2850 2844
2980 2975 2971 2966 2963 2960 2958 2956 2956 2954 2952 2950 2949 2947 2944 2943 2941 2940 2939 2937 2935 2934 2932 2930 2927 2924 2920 2916 2912 2908 2903 2899 2894 2889 2883 2878 2872 2866 2859 2853 2846 2840 2835
2971 2967 2962 2958 2954 2951 2949 2947 2946 2945 2943 2941 2940 2938 2936 2935 2934 2933 2932 2930 2928 2927 2925 2922 2919 2915 2911 2907 2902 2897 2893 2888 2883 2878 2872 2866 2861 2854 2848 2842 2837 2831 2826
2964 2960 2954 2950 2946 2943 2941 2939 2937 2935 2934 2933 2931 2929 2929 2929 2928 2926 2925 2923 2922 2920 2917 2913 2910 2907 2902 2898 2893 2888 2883 2877 2872 2866 2860 2854 2849 2843 2837 2832 2827 2822 2817
2958 2952 2947 2943 2939 2937 2934 2931 2929 2928 2927 2925 2925 2924 2924 2923 2922 2920 2919 2917 2915 2912 2908 2904 2901 2897 2894 2889 2885 2879 2873 2867 2861 2855 2850 2844 2839 2834 2828 2823 2818 2814 2809
2951 2947 2942 2937 2934 2930 2928 2925 2924 2922 2921 2921 2920 2920 2919 2918 2917 2915 2913 2910 2907 2903 2900 2896 2893 2889 2884 2879 2874 2868 2861 2856 2851 2845 2839 2834 2829 2824 2819 2814 2809 2805 2801